CZ-6A DEB

Satellite information

Favourite Embed

Satellite Type and Status

DEBRISIN ORBIT

Key statistics

Satellite CZ-6A DEB at a glance.

Uptime

495

Days in orbit

Revolutions

≈ 14.7

Per day

Orbit

LEO

Low Earth Orbit

Inclination

89.0

Latest

Satellite identification and parameters

Extended collection of information and parameters for CZ-6A DEB.

Object identification

Identified? True

Debris? True

Object name: CZ-6A DEB

International designator: 2024-140FE

Object number (NORAD): 60779

Object ID (CCSDS): 60779

Country: PEOPLES REPUBLIC OF CHINA (PRC)

Current information (Y/N): Y

RCS size: SMALL

Orbital parameters

Period: 97.759 minutes

Inclination: 88.9698 deg

SMA: 7029.589 km

Apoapsis: 715.157 km

Periapsis: 587.75 km

RAAN: 289.9034 deg

Eccentricy: 0.00906218

Argument of periapsis: 151.1091 deg

Mean anomaly: 209.519 deg

Mean motion: 14.7301739 rev/day

Mean motion (dot): 0.00012344 rev/day2

B* drag term: 0.0017957869 1/REarth

Two-line elements (TLE)

Creation date: Dec. 14, 2025, 3:07 a.m.

Reference frame: TEME

Reference center: EARTH

Epoch: Dec. 13, 2025, 2:32 p.m. UTC

TLE line 0: 0 CZ-6A DEB

TLE line 1: 1 60779U 24140FE 25347.60611680 .00012344 00000-0 17958-2 0 9995

TLE line 2: 2 60779 88.9698 289.9034 0090622 151.1091 209.5190 14.73017390 71156

Live tracking on map

Real-time ground track for satellite CZ-6A DEB.

In-orbit conjunctions

A list of the most updated potential collisions computed for object CZ-6A DEB.

Target Orbit TCA Probability of collision Miss distance Type
SL-14 R/B LEO 2025-09-09 04:43:07 0.000902376 29.0 (m) ROCKET BODY
SL-16 DEB LEO 2025-02-08 01:36:54 0.0001060886 276.0 (m) DEBRIS
FENGYUN 1C DEB SSO 2025-02-03 15:34:22 0.000115983 320.0 (m) DEBRIS
IRIDIUM 69 LEO 2025-01-27 22:26:37 0.0002411159 692.0 (m) PAYLOAD
IRIDIUM 33 DEB LEO 2024-11-16 09:13:28 0.0003514747 343.0 (m) DEBRIS

Associated space launch

18 Low Earth Orbit communication satellites with Ku, Q and V band payloads for the G60 constellation operated by Shanghai Spacecom Satellite Technology (SSST) with funding backed by the Shanghai local government. Initial constellation will consist of 1296 satellites by 2027 with long term plans to expand it to 12000 satellites.

CZ-6A DEB was lifted into orbit during the mission ‘Long March 6A | G60 Polar Group 01’, on board a Long March 6A space rocket.

The launch took place on Aug. 6, 2024, 6:42 a.m. from Launch Complex 9A.

For more information about the launch, click the button.

Launch to space Long March 6A | G60 Polar Group 01
Long March 6A | G60 Polar Group 01

Agency: N/A

Status: Launch Successful

Launch date: Aug. 6, 2024, 6:42 a.m. UTC

Rocket: Long March 6A

Launch pad: Launch Complex 9A

Location: Taiyuan Satellite Launch Center, People's Republic of China

...

Latest news about this satellite

News about space launch
Brightness of first Chinese broadband constellation satellites alarms astronomers

The first satellites of a Chinese broadband constellation are significantly brighter than those of Western systems, posing a new challenge for astronomers.

News about space launch
Chinese rocket stage breaks up into cloud of more than 700 pieces of space debris

HELSINKI — A Chinese Long March 6A rocket’s upper stage has fragmented into a cloud of over 700 pieces of space debris, adding to concerns about long-term orbital safety. China […]

News about space launch
China's Thousand Sails Megaconstellation Kicks Off with Dangerous Debris Field

China's Thousand Sails Megaconstellation Kicks Off with Dangerous Debris Field


Newsletter sign-up

Weekly statistics, charts and insights to help you stay on top of the space industry.